RH
84 85 87 87 86 84 83 85 87 88 89 89 90 90 89 88 87 86 85 83 81 79 77 75 73 70 66 61 57 53 51 49 48 47 47 48 49 50 50 49 48 47 44 42 39 36 33 31 29 29 29 31 32 34 35 36 36 37 38 38 38 38 38 37 37 37 37 38 39 38 36 35 33 31 30 28 27 26 25 24 24 24 24 25 26 28
89 89 89 88 85 82 80 84 87 88 89 90 90 90 89 88 88 87 85 83 80 77 73 70 66 62 58 55 53 51 50 49 49 49 50 52 52 52 52 49 46 42 39 36 33 32 31 31 32 33 34 35 36 37 38 38 39 39 39 39 38 37 36 34 32 31 29 28 27 25 24 22 21 19 18 18 17 16 16 16 17 18 18 20 23 24
88 88 88 86 82 79 79 84 87 89 90 90 90 89 89 88 87 85 83 79 75 71 67 63 60 57 54 53 52 51 50 49 50 51 52 53 52 50 47 42 38 35 32 31 31 32 34 35 36 37 37 38 39 39 40 40 39 39 38 36 34 32 30 27 25 23 21 19 18 16 16 15 14 14 13 13 13 13 13 14 14 15 17 17 17 18
88 88 87 84 82 80 80 82 86 89 90 89 89 88 88 86 84 81 77 73 69 65 61 59 57 55 54 53 52 52 52 52 52 52 51 49 46 42 37 34 32 32 32 34 35 36 37 38 38 39 39 40 40 40 40 39 37 35 33 31 28 25 23 21 19 17 16 15 14 13 13 13 12 12 13 13 13 13 13 14 14 14 14 15 15 16
87 86 85 83 82 81 80 81 82 84 86 87 86 85 84 82 78 75 71 67 64 62 59 58 57 56 55 55 55 55 54 53 51 48 45 41 37 34 33 33 34 35 36 37 38 39 39 40 40 40 40 40 39 38 37 34 32 29 27 24 22 20 19 18 17 16 15 15 14 14 13 13 13 13 13 14 14 14 14 14 15 15 15 15 16 16
86 85 84 82 81 81 80 81 81 82 82 82 81 79 78 75 72 69 66 64 63 61 60 59 58 58 57 57 56 55 52 48 45 41 38 36 35 35 35 36 37 38 38 39 40 40 41 41 41 40 39 37 35 33 30 28 25 23 22 20 19 18 18 17 17 16 16 15 15 14 14 14 14 14 14 14 14 15 15 15 15 16 16 16 17 17
86 85 84 83 82 81 82 82 82 81 80 78 76 74 72 70 68 67 65 63 63 62 61 61 60 59 58 56 53 50 45 42 39 37 36 36 37 37 37 38 38 39 40 40 41 40 40 39 37 36 33 31 28 26 24 22 21 20 19 18 17 17 17 17 16 16 16 15 15 15 15 15 15 15 15 15 15 15 15 15 16 16 16 17 17 17
87 86 84 83 83 83 83 83 82 80 78 76 73 71 69 68 66 65 64 64 64 63 63 61 59 57 55 52 48 44 40 38 37 37 38 38 38 37 37 38 39 40 40 39 39 37 35 33 30 28 26 24 22 21 20 19 18 18 17 17 16 16 16 16 16 16 16 16 16 16 16 16 16 16 16 16 16 16 16 16 16 16 16 17 17 17
87 86 85 85 85 84 83 81 79 76 74 73 71 69 67 66 65 64 64 64 63 62 59 57 54 52 49 45 42 39 38 38 39 40 39 39 38 38 38 38 38 38 37 35 32 30 27 25 23 22 21 20 19 18 18 18 17 17 17 17 16 16 16 16 16 16 16 16 16 16 16 16 16 16 16 16 16 16 16 16 16 16 16 17 17 17
88 88 87 86 85 83 81 78 75 74 72 71 69 67 65 64 63 62 61 59 57 54 51 49 47 45 43 41 40 39 40 41 41 40 39 38 37 37 36 35 34 32 30 27 25 23 21 20 20 19 19 18 18 18 18 18 17 17 17 17 17 17 17 16 16 16 16 16 16 16 16 16 16 16 16 16 16 16 16 16 16 16 16 16 16 17
88 87 86 83 81 78 76 74 72 71 70 69 67 65 63 60 57 54 51 48 46 46 45 44 43 43 43 42 42 42 42 41 40 38 36 35 34 32 31 29 27 25 23 21 20 20 19 19 19 19 19 18 18 18 18 18 17 17 17 17 17 17 17 17 17 17 17 17 17 17 17 17 17 17 17 17 16 16 16 16 16 16 16 16 16 16
85 83 81 79 76 73 70 69 68 68 68 66 64 61 58 53 48 44 42 43 45 46 46 45 45 45 44 44 43 42 40 38 35 32 30 28 27 26 24 23 21 20 19 18 18 18 18 18 19 19 19 19 19 18 18 18 18 18 18 17 17 17 17 17 17 17 17 17 18 18 18 18 18 18 18 17 17 17 17 17 17 17 16 16 16 16
81 79 76 73 71 68 67 67 67 66 64 60 56 51 46 44 43 42 44 46 47 48 48 48 47 46 44 43 40 37 33 29 26 24 22 21 21 20 19 18 18 17 17 17 18 18 19 19 19 19 19 19 19 18 19 18 18 18 18 18 18 18 18 18 18 18 18 19 19 19 19 19 19 19 19 19 18 18 18 18 18 18 18 18 18 18
75 73 70 69 67 67 66 65 63 60 56 51 48 46 45 45 46 48 50 51 50 49 48 48 46 44 40 36 32 28 23 20 17 17 16 17 17 17 17 16 16 17 17 17 18 19 19 19 19 19 19 19 19 19 19 19 18 18 18 19 19 18 19 19 19 19 20 20 20 20 20 20 20 20 20 20 20 20 20 20 20 20 20 20 20 20
70 69 68 67 66 64 62 58 55 52 50 49 48 48 48 50 51 52 53 52 51 49 46 44 40 35 30 26 22 18 15 14 13 14 15 16 16 17 17 17 17 17 17 18 18 19 19 19 19 19 19 19 19 19 19 19 19 19 19 19 19 20 20 20 20 21 21 21 22 22 22 22 22 22 22 22 22 22 22 22 22 22 22 22 22 22
67 66 64 62 60 58 56 54 53 53 53 52 52 53 54 55 55 54 52 50 46 42 38 32 28 23 20 18 16 14 12 12 13 14 15 15 16 17 18 17 17 17 18 18 19 19 19 19 19 19 19 19 19 19 19 19 19 20 20 20 20 21 21 21 21 22 22 23 23 23 23 23 23 23 23 23 23 23 23 23 24 24 24 24 24 24
62 60 58 57 56 55 54 55 55 55 56 56 56 55 55 54 53 51 47 42 36 31 26 22 19 17 15 14 13 12 12 13 14 15 16 16 16 17 18 18 17 17 18 18 19 19 19 19 19 19 19 19 19 19 19 20 20 20 21 21 21 21 22 22 22 22 23 23 23 23 23 23 23 24 24 24 24 24 25 24 25 25 25 25 26 26
59 59 58 57 57 56 56 57 57 58 58 57 57 55 52 48 44 39 34 29 25 23 20 19 17 16 14 12 11 12 13 14 15 16 16 16 16 18 18 18 18 18 18 18 19 19 19 19 19 19 19 20 20 20 20 20 21 21 21 22 22 22 22 23 23 23 23 24 24 24 24 24 24 24 24 24 25 25 25 25 25 26 26 27 27 27
59 59 58 59 58 57 57 57 57 56 55 53 50 46 41 36 32 28 24 22 20 19 19 18 16 15 13 11 11 12 15 16 17 17 17 16 17 17 19 18 18 18 18 19 19 19 19 19 20 20 20 20 21 21 21 21 22 22 22 23 23 23 24 24 24 24 24 25 25 25 25 25 25 25 25 26 26 26 26 26 26 27 27 28 28 29
57 57 58 57 57 57 56 55 53 50 45 40 36 32 28 26 24 23 21 20 19 19 18 18 16 14 12 11 11 13 17 18 18 18 18 17 17 17 18 18 18 18 19 19 19 20 20 20 20 20 21 21 22 22 22 22 23 23 23 24 24 24 25 25 25 25 26 26 26 26 26 26 26 27 27 27 27 27 27 28 28 28 28 29 29 30
58 58 59 57 55 52 49 46 41 36 32 29 27 25 24 23 22 21 20 20 19 18 17 17 15 13 11 11 13 15 18 19 19 19 18 17 17 18 18 18 19 19 19 19 20 20 21 21 21 22 22 23 23 23 23 24 24 24 25 25 25 25 26 26 26 27 27 27 27 27 27 27 27 27 27 28 28 28 28 28 29 29 29 29 30 30
58 56 54 50 46 42 38 35 32 29 27 25 24 23 22 21 21 20 19 19 18 17 16 15 13 12 11 12 14 17 19 20 20 19 18 18 17 18 19 19 19 19 19 20 21 21 22 22 23 23 24 24 25 25 25 25 25 26 26 26 27 27 27 27 27 28 28 28 28 28 28 28 28 28 28 28 28 28 28 29 29 29 29 29 29 29
49 46 43 40 37 33 30 28 27 25 24 23 22 21 21 20 20 19 18 17 17 15 14 13 12 12 12 14 16 18 19 20 20 20 19 19 18 18 19 20 20 20 20 21 22 23 23 24 25 25 26 26 26 27 27 27 27 27 28 28 28 28 28 28 29 28 29 29 29 29 29 29 29 29 29 29 29 29 29 29 29 29 29 29 29 29
36 33 31 30 28 27 26 25 24 23 22 21 20 20 19 19 18 17 16 15 14 14 13 12 12 13 15 16 18 19 20 20 20 20 20 19 19 19 20 21 21 22 22 23 24 24 25 26 27 27 27 28 28 28 28 28 29 29 29 29 30 30 30 30 30 30 29 30 29 30 30 29 29 29 29 29 29 29 28 28 28 28 29 29 29 30
24 23 23 22 22 21 21 21 21 20 19 19 18 18 17 16 15 15 14 13 12 12 12 13 14 15 16 18 18 19 19 20 20 20 20 20 20 20 21 22 23 23 24 24 25 26 27 28 28 29 29 29 30 30 30 30 30 30 31 31 31 31 31 31 31 31 31 31 31 30 30 30 30 30 29 29 28 28 28 28 28 28 28 29 30 31
19 19 19 19 19 19 19 20 19 19 19 19 19 18 16 15 14 13 12 11 12 12 13 14 16 17 18 19 19 19 19 20 20 21 21 22 21 22 23 24 25 25 26 26 27 28 28 29 30 30 31 31 31 31 31 31 32 32 32 33 33 33 33 33 33 33 32 32 32 32 31 31 30 30 29 28 28 27 27 27 27 28 28 30 31 33
17 18 18 18 18 18 18 18 18 18 18 19 19 18 17 16 15 14 13 12 13 14 15 17 18 18 19 19 19 19 20 20 21 22 22 23 23 23 24 26 27 27 27 28 28 29 30 30 31 32 32 33 33 33 33 33 33 34 34 35 35 35 35 35 34 34 34 33 33 33 32 31 30 29 29 28 28 27 27 27 28 28 29 31 33 35
18 18 19 19 19 18 17 17 16 16 15 16 16 16 16 15 15 14 13 13 15 16 17 19 19 20 20 20 20 20 20 21 22 23 23 24 25 26 26 28 29 29 30 30 30 30 31 31 32 33 34 34 35 35 35 35 35 36 36 37 37 37 37 36 36 36 35 35 34 33 32 32 31 30 29 29 29 28 28 28 28 29 30 32 35 37
18 18 18 18 17 16 16 15 15 15 14 14 14 14 14 14 13 14 14 15 17 18 19 20 21 21 21 21 21 20 20 22 23 24 25 26 27 28 29 30 31 31 31 31 31 30 31 32 33 34 35 36 37 37 38 38 38 38 38 39 39 39 39 38 37 37 36 36 35 34 33 33 32 32 31 31 30 30 29 29 29 30 32 34 37 39
17 17 17 16 16 15 14 14 14 14 14 13 14 14 14 14 14 16 17 18 19 20 21 21 21 21 22 22 22 22 22 24 25 26 27 28 29 30 31 32 32 33 33 33 32 32 31 32 33 35 36 37 38 39 40 40 40 40 40 40 40 40 40 39 39 38 37 37 36 36 35 34 34 33 33 32 32 31 30 30 31 32 34 36 39 40
16 16 16 15 15 14 14 14 13 13 13 14 14 15 16 16 18 19 20 21 21 21 21 22 22 22 22 23 23 24 25 26 27 28 29 31 32 32 33 33 33 34 34 35 35 35 34 33 34 35 37 38 39 41 41 42 42 42 42 42 42 42 41 40 39 39 38 38 37 37 36 36 36 35 35 34 33 32 32 32 33 35 37 39 41 42
15 15 15 14 14 14 14 14 14 14 14 15 16 17 18 19 20 20 21 21 21 22 22 22 22 23 23 24 25 26 26 27 29 30 32 33 34 34 34 34 35 35 35 36 37 38 38 36 35 35 37 38 40 41 42 43 43 43 43 43 43 42 42 41 40 40 39 39 38 38 38 38 38 37 37 36 35 34 33 34 35 37 40 42 43 44
15 15 15 15 15 14 14 14 14 15 16 17 18 19 20 20 21 21 21 21 22 22 22 23 23 24 25 26 26 27 28 29 31 33 34 35 35 35 35 35 36 36 36 37 38 39 40 39 37 36 37 38 39 41 42 43 44 44 44 44 43 43 42 41 40 40 39 39 39 39 39 39 39 39 38 37 36 35 35 36 38 40 42 44 45 46
16 16 16 15 15 15 15 15 16 17 18 19 20 20 20 20 20 21 21 21 22 22 23 24 24 25 27 27 28 29 30 31 33 35 35 36 37 37 36 37 37 38 38 39 39 40 40 40 40 39 38 38 39 41 42 43 44 44 44 44 44 43 42 41 41 40 39 39 40 40 40 40 40 40 40 38 38 37 37 38 40 42 44 45 46 47
16 16 16 16 16 16 16 17 18 19 20 21 21 20 20 20 20 21 21 22 23 23 24 25 26 27 28 30 31 32 33 34 35 36 37 38 38 38 38 39 39 40 41 41 41 41 41 41 41 41 41 40 39 40 42 43 44 44 45 44 43 43 42 41 40 40 40 39 40 40 41 41 41 41 41 40 39 39 39 41 42 43 44 45 46 47
17 17 16 16 17 17 18 19 20 21 21 21 20 20 21 21 21 22 22 23 24 24 25 26 27 29 30 32 33 34 35 36 37 38 39 39 40 40 41 41 41 42 43 43 43 43 43 42 42 42 42 42 41 41 41 42 43 44 44 43 43 42 41 41 41 40 40 40 40 41 41 42 42 42 41 41 41 41 41 42 43 44 44 44 45 47
17 17 17 17 18 19 20 21 21 21 21 21 20 21 21 22 23 23 24 25 25 26 27 28 29 30 32 33 35 36 37 38 39 40 40 41 41 42 43 43 43 44 45 45 45 45 44 43 43 43 43 43 43 42 41 42 42 43 43 42 42 42 41 41 41 41 40 40 41 41 42 43 43 43 43 42 42 42 43 43 44 44 44 44 45 47
17 17 18 19 20 21 22 22 22 21 21 21 21 22 23 23 24 25 25 26 27 28 29 30 31 32 34 36 37 38 39 40 41 41 42 43 43 44 45 45 45 45 46 46 46 46 45 45 45 44 44 43 43 43 43 42 42 42 41 41 41 41 41 41 41 41 41 41 41 42 43 43 44 44 43 43 43 43 43 44 44 44 44 44 45 46
17 18 19 21 22 22 22 22 22 21 21 22 23 23 24 24 25 25 26 27 28 29 30 31 33 35 36 38 39 40 41 42 43 44 44 45 45 46 46 47 47 47 47 47 47 47 47 46 46 46 46 44 42 42 42 42 42 42 40 39 39 39 40 41 41 41 41 42 42 43 43 44 44 45 44 44 44 44 44 44 44 44 44 45 45 46
18 19 21 22 23 23 23 22 22 22 23 23 24 24 24 25 25 26 27 28 29 30 31 33 34 36 38 39 41 42 43 44 45 46 47 47 47 48 48 48 48 48 48 48 48 47 48 47 47 47 46 45 43 42 42 42 42 41 41 40 39 38 39 40 41 41 42 43 44 44 45 45 45 45 45 45 45 45 45 45 45 44 45 46 46 47
20 21 23 24 24 23 23 23 23 24 24 24 24 25 25 26 26 27 28 29 30 31 33 34 36 38 40 41 43 44 46 47 48 48 48 49 49 49 49 49 49 49 49 49 48 48 48 48 48 47 46 44 43 42 42 42 42 42 42 41 39 38 38 39 41 42 43 44 45 46 47 46 46 46 46 46 46 46 46 46 46 45 46 47 48 49
21 23 24 24 24 24 24 25 25 25 25 25 25 25 26 27 27 28 29 30 32 33 35 37 38 40 42 44 45 47 48 49 49 50 50 50 50 50 50 51 51 50 50 49 48 48 48 48 48 47 45 44 43 42 41 41 41 41 41 41 40 39 38 39 41 43 46 46 46 47 48 48 47 47 47 47 47 47 46 47 47 47 47 47 48 49
23 25 25 25 25 25 25 25 25 25 25 25 26 26 27 28 29 30 31 33 34 36 38 39 41 42 44 46 47 48 50 50 51 51 51 51 51 51 51 51 51 50 50 49 48 48 47 47 47 46 44 43 42 41 41 40 40 40 41 41 41 41 41 40 41 43 46 47 47 48 48 48 48 48 48 48 47 47 47 47 48 48 48 47 48 49
25 26 26 26 27 26 26 26 26 25 25 26 26 27 28 29 30 32 34 35 37 38 40 41 43 44 46 48 49 50 51 51 51 52 52 52 52 52 52 51 50 50 49 48 47 47 47 47 46 45 44 43 42 41 40 40 40 40 40 41 41 42 43 42 43 44 45 46 47 48 49 49 49 48 48 48 48 48 48 48 47 47 47 47 48 49
27 28 28 27 27 27 26 26 26 26 26 26 27 27 29 30 32 34 35 37 39 40 41 43 45 46 48 48 49 50 51 51 51 52 52 52 52 52 51 51 50 48 47 47 47 47 47 47 45 44 43 42 41 41 40 40 40 39 39 40 41 42 43 43 44 46 47 47 48 48 49 49 49 50 49 48 48 48 48 48 48 47 47 47 49 51
29 29 29 28 28 27 27 27 26 26 26 27 27 28 30 32 33 35 37 39 40 42 43 45 46 48 49 50 50 51 51 51 51 51 51 51 51 51 50 49 48 47 47 47 47 47 47 46 45 44 43 42 41 40 40 41 40 40 39 40 41 42 43 44 45 46 48 48 48 49 49 50 50 51 50 49 49 48 48 48 48 48 48 49 50 53
31 31 30 29 29 28 28 27 27 27 27 27 28 30 31 33 35 37 39 41 43 44 45 46 48 49 50 51 51 51 51 51 51 51 51 51 50 50 49 48 47 46 46 46 47 47 47 46 45 44 43 42 41 40 40 40 40 41 40 41 42 43 44 45 46 47 48 49 49 49 50 50 51 51 50 50 49 49 48 49 49 49 50 51 53 56
32 32 31 30 29 29 28 28 27 28 28 28 29 31 33 35 37 40 42 43 45 46 47 48 49 50 51 51 51 52 52 52 52 51 51 51 50 48 47 46 46 46 46 47 47 47 46 46 45 44 43 42 42 41 40 39 40 41 41 42 43 44 45 45 46 47 49 50 50 50 51 51 51 50 50 49 49 49 49 50 50 51 52 54 56 59
33 33 32 31 30 29 29 28 28 28 29 30 31 33 35 38 40 42 44 45 46 48 49 50 50 51 51 51 52 52 53 53 53 52 51 50 49 48 47 46 46 47 47 48 47 47 46 44 43 43 43 43 42 41 40 39 40 41 42 43 44 45 46 47 47 48 50 50 50 50 51 51 51 50 50 49 49 49 50 51 52 54 55 57 59 62
34 33 32 32 31 30 29 29 29 30 30 32 33 35 37 40 42 44 46 46 47 48 49 50 51 52 52 52 53 53 53 54 53 53 51 50 49 48 47 47 48 48 49 48 48 47 45 44 42 42 42 43 43 42 41 40 41 42 43 45 46 47 48 48 49 49 50 51 50 50 50 50 50 50 50 50 50 50 51 53 55 57 58 60 62 64
35 34 33 32 32 31 30 30 30 31 32 34 36 38 40 42 44 45 47 47 48 49 50 51 52 52 53 53 54 54 54 54 54 53 51 50 49 49 49 49 49 50 50 49 48 46 44 42 41 40 41 42 42 43 43 43 43 44 45 46 48 49 50 50 50 50 51 51 50 50 50 50 50 50 51 51 51 52 53 55 57 59 61 63 65 66